Regional Weather Roundup
Issued by NWS

Home | Current Version | Previous Version | Text Only | Print | Product List | Glossary On
Versions: 1 2 3 4 5 6 7 8 9 10 11 12 13 14 15 16 17 18 19 20 21 22 23 24 25 26 27 28 29 30 31 32 33 34 35 36 37 38 39 40 41 42 43 44 45 46 47 48 49 50
000
ASUS42 KFFC 241603
RWRGA
WEATHER ROUNDUP FOR GEORGIA
NATIONAL WEATHER SERVICE PEACHTREE CITY GA
1200 PM EDT TUE MAY 24 2016

NOTE: "FAIR" INDICATES FEW OR NO CLOUDS BELOW 12,000 FEET WITH NO
SIGNIFICANT WEATHER AND/OR OBSTRUCTIONS TO VISIBILITY.

* = USE WITH CAUTION. THE STATIONS MARKED WITH AN ASTERISK MAY NOT
REPORT WEATHER SUCH AS PRECIPITATION, FOG, OR THUNDER AND ARE NOT
QUALITY CONTROLLED BY NWS.

THE REMARK "TC" DENOTES TEMPERATURE READING IN DEGREES CELSIUS.

GAZ001>058-241700-
NORTH GEORGIA

CITY           SKY/WX    TMP DP  RH WIND       PRES   REMARKS
ATLANTA        MOSUNNY   80  54  40 N8        30.17S
ATHENS         SUNNY     76  58  53 CALM      30.17S
CHAMBLEE       SUNNY     78  55  44 VRB5      30.18R
PEACHTREE CITY SUNNY     78  56  46 VRB5      30.17S
ROME           SUNNY     76  55  48 CALM      30.16F
WEST ATLANTA   SUNNY     77  58  51 VRB5      30.17S
GAINESVILLE    SUNNY     75  55  49 N3        30.21R
CARTERSVILLE   SUNNY     76  54  46 VRB3      30.18S


CITY           SKY/WX    TMP DP  RH WIND       PRES   REMARKS
DALTON*        SUNNY     75  54  46 CALM      30.17F
LAWRENCEVILLE* SUNNY     75  55  50 CALM      30.19R
KENNESAW*      SUNNY     75  55  50 CALM      30.15S
CANTON*        SUNNY     73  45  35 CALM      30.20S
BLAIRSVILLE*     N/A    N/A N/A N/A MISG      30.21S
$$

GAZ059>098-102>109-241700-
CENTRAL GEORGIA

CITY           SKY/WX    TMP DP  RH WIND       PRES   REMARKS
AUGUSTA-BUSH   SUNNY     79  60  52 SE5       30.15S
AUGUSTA-DANIEL SUNNY     78  58  49 CALM      30.17R
COLUMBUS       MOSUNNY   80  54  40 SW6       30.15S
MACON          SUNNY     82  55  39 NW7       30.16R
ROBINS AFB     SUNNY     82  55  38 N6        30.15S


CITY           SKY/WX    TMP DP  RH WIND       PRES   REMARKS
LAGRANGE*      MOSUNNY   82  60  48 CALM      30.17R
SYLVANIA*      SUNNY     82  61  49 S7        30.17S
MILLEDGEVILLE* SUNNY     79  57  47 CALM      30.17R
$$

GAZ099>101-110>166-241700-
SOUTH GEORGIA

CITY           SKY/WX    TMP DP  RH WIND       PRES   REMARKS
SAVANNAH       MOSUNNY   81  59  47 VRB5      30.17R
VALDOSTA       SUNNY     83  61  47 CALM      30.14S
ALMA           SUNNY     83  46  27 S3        30.15S
ST SIMONS      PTSUNNY   81  65  58 E8        30.16R
FT STEWART     SUNNY     83  58  43 CALM      30.14R
ALBANY         SUNNY     87  45  23 VRB5      30.16S
HUNTER AFB     MOSUNNY   80  65  60 VRB3      30.14S
MOODY AFB      MOSUNNY   81  58  45 VRB6      30.13S
BRUNSWICK      MOSUNNY   88  54  31 S3        30.17R


CITY           SKY/WX    TMP DP  RH WIND       PRES   REMARKS
BAINBRIDGE*    SUNNY     82  52  34 CALM      30.15R
MOULTRIE*      SUNNY     82  55  39 SE5       30.15S
VIDALIA*       SUNNY     81  55  41 SW7       30.16R
WAYCROSS*      SUNNY     83  55  36 W5        30.15R
DOUGLAS*       SUNNY     86  50  28 SW3       30.17R
$$



USA.gov is the U.S. government's official web portal to all federal, state and local government web resources and services.